Flag for Italy Weather past 2 weeks in Albenga, Italy

Now
61 °F

Passing clouds.


Feels Like: 61 °F
Forecast: 58 / 76 °F
Wind: 9 mph from Northeast

Location: Capo Mele

Current Time: May 25, 2015 at 2:03:03 AM

Latest Report: May 25, 2015 at 1:00 AM


Visibility: 13 mi

Pressure: 29.97 "Hg

Humidity: 65%

Dew point: 49 °F

Location of AlbengaLocation

Historic Weather in Albenga — Graph

°F

Albenga temperature yesterday

Maximum temperature yesterday: 69 °F (at 5:00 PM)
Minimum temperature yesterday: 57 °F (at 2:00 AM)
Average temperature yesterday: 64 °F

Past Weeks' High & Low Weather Summary

 TemperatureHumidityPressure
High81 °F (May 17, 2:00 PM)90% (May 11, 8:00 PM)30.28 "Hg (May 11, 8:00 PM)
Low49 °F (May 21, 7:00 AM)24% (May 10, 11:00 PM)29.47 "Hg (May 15, 1:00 PM)
Average65 °F64%29.96 "Hg
* Reported Midnight between May 9 and May 10 — Midnight between May 24 and May 25, Albenga, Weather by CustomWeather, © 2015

Note: Actual official high and low records may vary slightly from our data, if they occured in-between our weather recording intervals... More about our weather records

Advertising

Albenga weather history for previous 24 hours

 ConditionsComfort  
Time TempWeatherWind HumidityBarometerVisibility
12:00 AM
Mon, May 25
63 °FPassing clouds.2 mph59%29.97 "Hg12 mi
10:00 PM
Sun, May 24
62 °FPassing clouds.8 mph70%29.95 "Hg12 mi
9:00 PM63 °FPassing clouds.15 mph62%29.95 "Hg12 mi
8:00 PM67 °FPassing clouds.15 mph44%29.94 "Hg31 mi
7:00 PM68 °FPassing clouds.14 mph42%29.93 "Hg31 mi
6:00 PM67 °FPassing clouds.12 mph49%29.96 "Hg31 mi
5:00 PM69 °FScattered clouds.14 mph41%29.99 "Hg31 mi
4:00 PM68 °FScattered clouds.7 mph52%29.99 "Hg31 mi
3:00 PM67 °FScattered clouds.9 mph56%30.00 "Hg31 mi
2:00 PM67 °FScattered clouds.6 mph54%30.01 "Hg12 mi
1:00 PM68 °FPassing clouds.5 mph54%30.00 "Hg31 mi
12:00 PM68 °FPassing clouds.12 mph53%29.98 "Hg31 mi
11:00 AM67 °FPassing clouds.17 mph48%29.97 "Hg12 mi
10:00 AM65 °FScattered clouds.18 mph47%29.97 "Hg12 mi
9:00 AM66 °FPassing clouds.10 mph50%29.95 "Hg12 mi
8:00 AM59 °FPartly sunny.10 mph63%29.96 "Hg12 mi
7:00 AM59 °FPartly sunny.9 mph57%29.95 "Hg12 mi
6:00 AM59 °FPartly sunny.13 mph56%29.94 "Hg12 mi
4:00 AM59 °FOvercast.15 mph57%29.95 "Hg12 mi
3:00 AM60 °FOvercast.18 mph61%29.94 "Hg12 mi
2:00 AM57 °FOvercast.22 mph78%29.95 "Hg12 mi
Weather by CustomWeather, © 2015

See weather overviewHow to use our weather pages